SL-19 DEB, 23484

Orbit data source: Space-Track

SL-19 DEB, 23484 is space debris in LEO originally from a launch on Mon, 26 Dec 1994 UTC launched from the Tyuratam Missile And Space Complex (TTMTR). Debris objects in space refer to the collection of defunct objects orbiting the Earth. Examples of debris include non-operational satellites, rocket bodies, and fragments generated from explosions, collisions, or faulty payload assembly.

Loading next visibility...
Identifier
23484, 1994-085G
Orbit
LEO
Country
Flag of CISCIS
Related business
Manufacturer
Unknown
Mission
Spacecraft
Bus & Motor
Unknown
Mass
Unknown
Launch date (UTC)
1994-12-26 (31 years ago)
Launch vehicle
Unknown
Launch site
Tyuratam Missile And Space Complex (TTMTR)
Object type
Payload
Rocket body
Debris
Shape & HBR
Unknown shape, 0.5 m
Radar Cross Section
Medium (>0.1 m² and <1 m²)

Expand to show TLE details & history
Last TLE update: 16 hours ago

TLE from 16 hours ago
0 SL-19 DEB
1 23484U 94085G   26062.15986096 -.00000876  00000-0 -24261-1 0  9996
2 23484  64.7369 329.4124 0226873 150.2651 359.9920 11.22851809275931
Epoch: 2026-03-03T03:50Z
TLE epoch observation values (Epoch: 2026-03-03T03:50:11.986Z)
Latitude
26.70701°
Longitude
-82.74857°
Altitude
1,856.851 km
Speed
7.039 km/s
True Right ascension
09h 02m 58s
True Declination
26° 35' 15"
Sunlit
Object was in full shadow at epoch
Visualization orbit readout
Latitude
Unknown
Longitude
Unknown
Altitude
Unknown
Speed
Unknown
Apparent Right ascension
Unknown
Apparent Declination
Unknown
Sunlit
N/A
Visualization observer readout
Local Sidereal Time
23:29:57
Azimuth
Unknown
Elevation
Unknown
Doppler factor
Unknown
Orbital elements
Apogee altitude
2,235.809 km
Perigee altitude
1,853.626 km
Semi-major axis
8,422.855 km
Eccentricity
0.02269
Inclination
64.7369°
RAAN
329.4124°
Arg. of periapsis
150.2651°
True anomaly
359.99163°
Mean anomaly
359.992°
Eccentric anomaly
359.99181°
Mean motion
2.80772 °/min
Orbital period
128.22 mins
BSTAR
-0.024261
Loading maneuver chart data...
Computing Atmospheric mass density...
Loading historical data...
Loading historical data...
Loading historical data...
Loading historical data...
Loading historical data...
Loading historical data...
Loading historical data...

Documentation

Showing up to 5 results
|